Weather Roundup
Issued by NWS Chicago, IL

Home | Current Version | Previous Version | Graphics & Text | Print | Product List | Glossary On
Versions: 1 2 3 4 5 6 7 8 9 10 11 12 13 14 15 16 17 18 19 20 21 22 23 24 25 26 27 28 29 30 31 32 33 34 35 36 37 38 39 40 41 42 43 44 45 46 47 48 49 50
000
NZUS59 KLOT 042108
HRRLOT

CHICAGO AREA WEATHER ROUNDUP
NATIONAL WEATHER SERVICE CHICAGO/ROMEOVILLE IL
300 PM CST SUN DEC 04 2016

NOTE: "FAIR" INDICATES FEW OR NO CLOUDS BELOW 12,000 FEET WITH NO
SIGNIFICANT WEATHER AND/OR OBSTRUCTIONS TO VISIBILITY.

* THESE STATIONS ARE NOT UNDER NWS QUALITY CONTROL. THEY ALSO MAY NOT
  REPORT WEATHER SUCH AS PRECIPITATION OR FOG.

ILZ005-006-012>014-019>023-042200-
NORTHEAST ILLINOIS

CITY           SKY/WX    TMP DP  RH WIND       PRES   REMARKS
OHARE          HVY SNOW  32  31  96 SE3       29.91F VSB 1/4
MIDWAY         SNOW      33  30  88 E7        29.91F VSB 1/2 WCI  27
AURORA         HVY SNOW  33  31  92 CALM      29.91F VSB 1/4
LANSING*       SNOW      32  32 100 CALM      29.92F VSB 1/2
JOLIET*        LGT SNOW  33  33 100 CALM      29.90F VSB 1
WAUKEGAN       SNOW      32  32 100 S5        29.91F VSB 1/4 WCI  27
DUPAGE AIRPORT HVY SNOW  32  29  88 CALM      29.91S VSB 1/4
WHEELING       SNOW      32  31  96 CALM      29.93F VSB 1/4
KANKAKEE*      SNOW      32  32  99 CALM      29.89F VSB 1/2
MORRIS*        LGT SNOW  32  31  96 CALM      29.91R VSB 3/4
LEWIS AIRPORT* SNOW      32  32 100 CALM      29.89F VSB 1/2
NORTHERLY ISL    N/A     33  32  96 SE7         N/A  WCI  27
$$

WIZ051-052-058>065-066-070>072-042200-
SOUTHEAST WISCONSIN

CITY           SKY/WX    TMP DP  RH WIND       PRES   REMARKS
MILWAUKEE      SNOW      34  32  92 S5        29.92F VSB 1/2 WCI  30
KENOSHA*       SNOW      33  33 100 S3        29.93F VSB 1/4
RACINE*        SNOW      33  32  96 S5        29.94F VSB 1/2 WCI  29
BURLINGTON     SNOW      32  31  99 CALM      29.91F VSB 1/2
WAUKESHA       SNOW      30  28  93 SE5       29.91F VSB 1/2 WCI  25
WEST BEND      SNOW      32  32 100 CALM      29.91F VSB 1/2
$$

INZ001>003-010>013-019-020-042200-
NORTHWEST INDIANA

CITY           SKY/WX    TMP DP  RH WIND       PRES   REMARKS
GARY*          SNOW      34  34 100 CALM      29.93  VSB 1/2
MICHIGAN CITY* NOT AVBL
RENSSELAER*    NOT AVBL
VALPARAISO     SNOW      33  31  92 E8        29.91F VSB 1/2 WCI  26
$$

LMZ740>746-042200-
SOUTHERN LAKE MICHIGAN

STATION/POSITION TIME  SKY/WX   TEMP WIND        PRES    VSBY
                                AIR  DIR/SP/G
                 (UTC)          (F)  (DEG/KT/KT) (MB)    (MI)
HARRISON CRIB    2040            34  140/ 10/ 11   N/A
BURNHAM HARBOR   2100            33  120/  8       N/A
CALUMET HARBOR   2042            33  100/  6/  9 1013.0F
BURNS HARBOR     2040            33   80/  7/  9 1013.9F
MICHIGAN CITY    NOT AVBL
$$

ABBREVIATIONS USED IN REMARKS
   TC - TEMPERATURE IN CELSIUS
  WCI - WIND CHILL INDEX
   HX - HEAT INDEX
  VSB - VISIBILITY
$$




USA.gov is the U.S. government's official web portal to all federal, state and local government web resources and services.